Overview Statistics Trail Chart Weather Telemetry Raw packets
 

This is the latest recevied weather packets stored in our database for station/object IT9DBI-3. If no packets are shown the sender has not sent any weather packets the latest 10 day(s).

<< 25 26 27 28 29 >>
Time Temp. Humidity Pressure Rain* Wind** Luminosity Snow
1787802497 32.22° C 49% 1015.2 hPa - - - -
1787801295 31.67° C 55% 1015 hPa - - - -
1787800094 31.11° C 63% 1014.8 hPa - - - -
1787798893 31.67° C 64% 1014.8 hPa - - - -
1787797689 32.78° C 49% 1014.7 hPa - - - -
1787796487 32.22° C 46% 1014.3 hPa - - - -
1787795286 32.78° C 43% 1013.9 hPa - - - -
1787794085 32.78° C 49% 1014.1 hPa - - - -
1787792883 32.22° C 41% 1014.4 hPa - - - -
1787791682 31.11° C 43% 1014.4 hPa - - - -
1787790481 32.78° C 41% 1014.5 hPa - - - -
1787789280 33.89° C 31% 1014.6 hPa - - - -
1787788078 30° C 36% 1014.4 hPa - - - -
1787786877 31.11° C 35% 1014.3 hPa - - - -
1787785676 31.67° C 35% 1014.4 hPa - - - -
1787784474 31.67° C 35% 1014.4 hPa - - - -
1787783273 32.22° C 33% 1014.5 hPa - - - -
1787782071 31.67° C 34% 1014.5 hPa - - - -
1787780869 31.11° C 37% 1014.7 hPa - - - -
1787779667 31.11° C 39% 1014.7 hPa - - - -
1787778466 31.67° C 38% 1014.4 hPa - - - -
1787777265 31.67° C 38% 1014.6 hPa - - - -
1787776064 31.67° C 38% 1014.6 hPa - - - -
1787774862 32.22° C 39% 1014.5 hPa - - - -
1787773661 32.22° C 37% 1014.5 hPa - - - -

* Rain since midnight (hover to see other rain measurements)
** Current wind speed in m/s (hover to see current wind gust speed)